CZ-3B R/B (44205 NORAD) Tracking and Keplerian Element Data

This shows tracking and keplerian element data for the satellite.

Feedback or suggestion? Click here.




ElementValue
Catalog44205
NameCZ-3B R/B
Epoch Orbit64
Epoch Day137.07167067
Epoch Year2019
RAAN55.5517
Inclination28.5794
Eccentricity0.7215556
Argument of Perigee196.0039
Mean Anonmoly116.0485
Mean Motion2.40358224
Decay Rate0.00032358
L11 44205U 19023B 19137.07167067 .00032358 13737-5 12648-2 0 9995
L22 44205 28.5794 55.5517 7215556 196.0039 116.0485 2.40358224 644

Live tracking and technical data element details for CZ-3B R/B (NORAD 44205). CZ-3B R/B can be tracked NOW for your location showing map with azimuth and elevation plus other details from your city location.

Track the satellite on the map from your city or location and see movement details for azimuth, elevation, latitude, longitude, range, height, and movement on the map or in text.







IsCatalogInMostPopularTable: catalog: 44205, numindb: 11
Update: records affected: 1



GetName: 44205 CZ-3B R/B

Hit Count: updated at: Sun, 26 May 2019 07:03:55 GMT